CA2JAT-13 Weather Reports


Display with metric or nautical units.
time (UTC)temp
F
wind
direction
speed
MPH
gust
MPH
rain 1hr
in
rain 24hr
in
rain mn
in
humidity
%
barometer
mb
20260507043020 55 0 0.0 0.0 0.00 0.00 0.00 87 1021.5
20260507040016 56 238 2.0 0.0 0.00 0.00 0.00 84 1021.3
20260507033011 57 263 2.0 0.0 0.00 0.00 0.00 78 1021.3
20260507031200 57 244 1.0 0.0 0.00 0.00 0.00 77 1021.2
20260507021155 58 260 0.0 0.0 0.00 0.00 0.00 75 1021.1
20260507014152 59 264 1.0 0.0 0.00 0.00 0.00 72 1020.9
20260507011118 59 288 0.0 0.0 0.00 0.00 0.00 71 1020.6
20260507001111 60 259 3.0 0.0 0.00 0.00 0.00 67 1020.0
20260506234107 61 265 6.0 0.0 0.00 0.00 0.00 64 1019.6
20260506231104 63 243 8.0 0.0 0.00 0.00 0.00 54 1019.0
20260506224101 64 244 7.0 0.0 0.00 0.00 0.00 49 1018.7
20260506221058 66 251 5.0 0.0 0.00 0.00 0.00 40 1017.9
20260506214054 69 258 5.0 0.0 0.00 0.00 0.00 32 1017.4
20260506204049 71 264 7.0 0.0 0.00 0.00 0.00 28 1017.4
20260506201046 73 262 8.0 0.0 0.00 0.00 0.00 27 1017.0
20260506194041 75 256 9.0 0.0 0.00 0.00 0.00 27 1016.6
20260506191038 75 257 6.0 0.0 0.00 0.00 0.00 26 1016.3
20260506184036 75 255 8.0 0.0 0.00 0.00 0.00 27 1016.2
20260506181033 75 268 6.0 0.0 0.00 0.00 0.00 26 1016.2
20260506174030 75 266 5.0 0.0 0.00 0.00 0.00 29 1016.4
20260506171027 74 260 6.0 0.0 0.00 0.00 0.00 33 1017.0
20260506164024 73 258 6.0 0.0 0.00 0.00 0.00 32 1017.4
20260506161021 70 300 1.0 0.0 0.00 0.00 0.00 39 1018.5
20260506154018 67 264 1.0 0.0 0.00 0.00 0.00 43 1019.2
20260506151016 66 58 2.0 0.0 0.00 0.00 0.00 46 1019.7
20260506141010 59 90 1.0 0.0 0.00 0.00 0.00 59 1022.2
20260506134006 51 54 1.0 0.0 0.00 0.00 0.00 75 1022.8
20260506130931 46 73 3.0 0.0 0.00 0.00 0.00 88 1023.3
20260506123929 44 54 2.0 0.0 0.00 0.00 0.00 91 1023.0
20260506120926 43 63 1.0 0.0 0.00 0.00 0.00 93 1023.1
20260506113924 43 108 1.0 0.0 0.00 0.00 0.00 92 1022.6
20260506103919 43 85 0.0 0.0 0.00 0.00 0.00 94 1021.5
20260506100916 43 275 0.0 0.0 0.00 0.00 0.00 94 1020.7
20260506093914 45 51 1.0 0.0 0.00 0.00 0.00 89 1020.5
20260506090912 46 45 3.0 0.0 0.00 0.00 0.00 92 1020.3
20260506083910 44 53 4.0 0.0 0.00 0.00 0.00 95 1020.6
20260506080907 45 76 2.0 0.0 0.00 0.00 0.00 90 1020.8
20260506070903 46 64 1.0 0.0 0.00 0.00 0.00 89 1020.4
20260506060857 46 66 2.0 0.0 0.00 0.00 0.00 92 1019.5
20260506050852 47 273 0.0 0.0 0.00 0.00 0.00 93 1020.0